Chicago Lansing, IN

6:24 AM CDT on March 30, 2017 (GMT -0500)
Lansing Municipal

Weather History for KIGQ - November, 2012

Change the Weather History Date:

Tuesday, November 20, 2012

  Actual Average (KGYY) Record (KGYY)
Temperature  
Mean Temperature 44 °F -  
Max Temperature 55 °F 42 °F 72 °F (1953)
Min Temperature 34 °F 30 °F 16 °F (1955)
Degree Days  
Heating Degree Days 20    
Moisture  
Dew Point 42 °F    
Average Humidity 82    
Maximum Humidity 99    
Minimum Humidity 67    
Precipitation  
Precipitation 0.00 in - - ()
Sea Level Pressure  
Sea Level Pressure 30.12 in    
Wind  
Wind Speed 4 mph (NE)    
Max Wind Speed 9 mph    
Max Gust Speed -    
Visibility 6 miles    
Events Fog , Rain    
Averages and records for this station are not official NWS values.
T = Trace of Precipitation, MM = Missing Value Source: NWS Daily Summary

Daily Weather History Graph

Daily Weather History Graph

Search for Another Location

Airport or City:

Trip Planner

Search our weather history database for the weather conditions in past years. The results will help you decide how hot, cold, wet, or windy it might be!

Date:

Astronomy

Nov. 20, 2012 Rise Set
Actual Time 6:45 AM CST 4:25 PM CST
Civil Twilight 6:15 AM CST 4:56 PM CST
Nautical Twilight 5:41 AM CST 5:29 PM CST
Astronomical Twilight 5:08 AM CST 6:02 PM CST
Moon 12:16 PM CST (11/20) No Moon Set
Length of Visible Light 10h 40m
Length of Day
9h 40m
First Quarter, 51% of the Moon is Illuminated
Nov 20
First Quarter
Nov 28
Full
Dec 6
Last Quarter
Dec 13
New
Dec 19
First Quarter

Hourly Weather History & Observations

Time (CST) Temp. Dew Point Humidity Pressure Visibility Wind Dir Wind Speed Gust Speed Precip Events Conditions
12:15 AM 47.7 °F 42.1 °F 81% 30.13 in 10.0 mi South 8.1 mph - N/A   Overcast
12:35 AM 47.5 °F 42.4 °F 83% 30.12 in 10.0 mi South 5.8 mph - N/A Rain Light Rain
12:55 AM 48.2 °F 41.7 °F 78% 30.11 in 10.0 mi SSE 4.6 mph - N/A   Overcast
1:15 AM 48.2 °F 41.5 °F 78% 30.11 in 10.0 mi SSE 5.8 mph - N/A   Overcast
1:35 AM 48.2 °F 41.0 °F 76% 30.10 in 10.0 mi SSE 5.8 mph - N/A   Overcast
1:55 AM 48.2 °F 41.4 °F 77% 30.10 in 10.0 mi SSE 4.6 mph - N/A   Overcast
2:15 AM 48.6 °F 41.0 °F 75% 30.10 in 10.0 mi South 5.8 mph - N/A   Overcast
2:35 AM 48.2 °F 40.8 °F 76% 30.10 in 10.0 mi SSE 5.8 mph - N/A   Overcast
6:15 AM 47.7 °F 41.2 °F 78% 30.09 in 10.0 mi SSW 3.5 mph - N/A   Overcast
6:35 AM 47.7 °F 41.2 °F 78% 30.09 in 10.0 mi Calm Calm - N/A   Overcast
6:55 AM 47.3 °F 41.5 °F 80% 30.10 in 10.0 mi Calm Calm - N/A   Overcast
7:15 AM 47.3 °F 41.5 °F 80% 30.10 in 10.0 mi Calm Calm - N/A   Overcast
7:35 AM 47.5 °F 41.9 °F 81% 30.10 in 10.0 mi Calm Calm - N/A   Overcast
7:55 AM 47.7 °F 42.3 °F 82% 30.10 in 10.0 mi SW 3.5 mph - N/A   Overcast
8:15 AM 47.8 °F 42.8 °F 83% 30.11 in 10.0 mi Calm Calm - N/A   Overcast
8:35 AM 48.0 °F 43.0 °F 83% 30.11 in 10.0 mi Calm Calm - N/A   Overcast
8:55 AM 48.4 °F 42.8 °F 81% 30.11 in 10.0 mi Calm Calm - N/A   Overcast
9:15 AM 49.1 °F 42.8 °F 79% 30.11 in 7.0 mi Calm Calm - N/A   Overcast
9:35 AM 50.4 °F 42.8 °F 75% 30.11 in 10.0 mi WSW 3.5 mph - N/A   Overcast
9:55 AM 51.1 °F 42.6 °F 73% 30.11 in 10.0 mi Calm Calm - N/A   Overcast
10:15 AM 52.2 °F 43.2 °F 71% 30.11 in 7.0 mi NW 3.5 mph - N/A   Overcast
10:35 AM 52.9 °F 43.5 °F 71% 30.11 in 7.0 mi Calm Calm - N/A   Mostly Cloudy
10:55 AM 54.3 °F 44.4 °F 69% 30.10 in 7.0 mi Calm Calm - N/A   Scattered Clouds
11:15 AM 55.0 °F 44.6 °F 68% 30.09 in 7.0 mi NNW 4.6 mph - N/A   Scattered Clouds
11:35 AM 55.6 °F 44.8 °F 67% 30.09 in 7.0 mi North 4.6 mph - N/A   Scattered Clouds
11:55 AM 55.4 °F 44.6 °F 67% 30.08 in 7.0 mi NNW 5.8 mph - N/A   Mostly Cloudy
12:15 PM 55.8 °F 45.1 °F 67% 30.08 in 7.0 mi NNW 4.6 mph - N/A   Mostly Cloudy
12:35 PM 55.4 °F 44.8 °F 67% 30.08 in 7.0 mi North 3.5 mph - N/A   Overcast
12:55 PM 54.7 °F 44.6 °F 69% 30.09 in 5.0 mi NNE 4.6 mph - N/A   Haze
1:15 PM 54.1 °F 44.8 °F 71% 30.09 in 5.0 mi Calm Calm - N/A   Haze
1:35 PM 54.9 °F 45.0 °F 69% 30.08 in 5.0 mi North 4.6 mph - N/A   Haze
1:55 PM 55.4 °F 44.8 °F 67% 30.08 in 5.0 mi North 3.5 mph - N/A   Haze
2:15 PM 54.9 °F 44.2 °F 67% 30.08 in 5.0 mi NNW 4.6 mph - N/A   Haze
2:35 PM 55.4 °F 44.4 °F 67% 30.08 in 5.0 mi North 3.5 mph - N/A   Haze
2:55 PM 55.4 °F 44.6 °F 67% 30.08 in 5.0 mi NE 9.2 mph - N/A   Haze
3:15 PM 52.0 °F 44.8 °F 76% 30.09 in 4.0 mi NNE 5.8 mph - N/A   Haze
3:35 PM 51.3 °F 44.8 °F 78% 30.11 in 4.0 mi NE 6.9 mph - N/A   Haze
3:55 PM 50.5 °F 45.0 °F 81% 30.11 in 3.0 mi NE 5.8 mph - N/A   Haze
4:15 PM 50.0 °F 45.1 °F 83% 30.11 in 3.0 mi NE 5.8 mph - N/A   Haze
4:35 PM 50.0 °F 45.1 °F 83% 30.12 in 3.0 mi NE 4.6 mph - N/A   Haze
4:55 PM 50.0 °F 45.1 °F 83% 30.12 in 4.0 mi NE 6.9 mph - N/A   Haze
5:15 PM 49.6 °F 45.3 °F 85% 30.13 in 4.0 mi NE 4.6 mph - N/A   Haze
5:35 PM 49.6 °F 45.5 °F 86% 30.14 in 4.0 mi NE 3.5 mph - N/A   Overcast
5:55 PM 48.9 °F 44.6 °F 85% 30.13 in 4.0 mi East 3.5 mph - N/A   Mostly Cloudy
6:15 PM 47.7 °F 43.9 °F 87% 30.14 in 4.0 mi NE 3.5 mph - N/A   Scattered Clouds
6:35 PM 47.8 °F 44.4 °F 88% 30.15 in 4.0 mi Calm Calm - N/A   Clear
6:55 PM 46.9 °F 44.2 °F 90% 30.15 in 3.0 mi Calm Calm - N/A   Clear
7:15 PM 44.8 °F 42.8 °F 93% 30.15 in 3.0 mi Calm Calm - N/A   Clear
7:35 PM 41.7 °F 40.1 °F 94% 30.15 in 2.0 mi Calm Calm - N/A   Clear
7:55 PM 39.9 °F 38.8 °F 96% 30.15 in 0.8 mi Calm Calm - N/A   Mist
8:15 PM 38.5 °F 37.6 °F 97% 30.16 in 0.2 mi Calm Calm - N/A Fog Fog
8:35 PM 39.2 °F 38.5 °F 97% 30.16 in 0.2 mi Calm Calm - N/A Fog Fog
8:55 PM 37.0 °F 36.3 °F 97% 30.16 in 0.2 mi Calm Calm - N/A Fog Fog
9:15 PM 37.0 °F 36.5 °F 98% 30.16 in 0.2 mi Calm Calm - N/A Fog Fog
9:35 PM 37.4 °F 36.9 °F 98% 30.18 in 0.2 mi Calm Calm - N/A Fog Fog
9:55 PM 36.5 °F 36.0 °F 98% 30.18 in 0.2 mi Calm Calm - N/A Fog Fog
10:15 PM 34.7 °F 34.2 °F 98% 30.18 in 0.2 mi Calm Calm - N/A Fog Fog
10:35 PM 34.9 °F 34.5 °F 99% 30.17 in 0.2 mi Calm Calm - N/A Fog Fog
10:55 PM 34.7 °F 34.0 °F 97% 30.18 in 0.2 mi Calm Calm - N/A Fog Fog
11:15 PM 35.2 °F 34.7 °F 98% 30.17 in 0.2 mi Calm Calm - N/A Fog Fog
11:35 PM 34.5 °F 34.0 °F 98% 30.17 in 0.2 mi Calm Calm - N/A Fog Fog
11:55 PM 34.5 °F 34.0 °F 98% 30.18 in 0.2 mi Calm Calm - N/A Fog Fog